www.pogodaiklimat.ru

Погода и климат >> Архив погоды >> Австрия >> Андау


ПОГОДА в Андау

  • Прогноз погоды в Андау
  • Монитор погоды в Андау

АРХИВ ПОГОДЫ в Андау

Время (UTC), дата Ветер
(напр.,м/с)
 
Видим.   Явления Облачность Т
(С)
Тd
(С)
f
(%)
Тe
(С)
Тes
(С)
Комфортность P
(гПа)
Po
(гПа)
Тmin
(С)
Tmax
(С)
R
(мм)
R24
(мм)
S
(см)
22 8.06 СЗ 1 н/о н/о +17.9 +11.1 64 +19 +19 1024.1 1009.7
23 8.06 З 1 н/о н/о +17.7 +11.4 67 +19 +19 1024.4 1010.0
00 9.06 З 2 н/о н/о +17.3 +11.9 71 +18 +18 1024.3 1009.9
01 9.06 З 2 н/о н/о +17.1 +12.3 73 +17 +17 1024.1 1009.7
02 9.06 З 2 н/о н/о +15.9 +11.9 77 +16 +16 1023.9 1009.5
03 9.06 СЗ 2 н/о н/о +15.5 +11.6 78 +15 +15 1024.0 1009.5
04 9.06 СЗ 2 н/о н/о +15.9 +11.7 76 +16 +16 1023.9 1009.5
05 9.06 З 2 н/о н/о +18.1 +12.3 69 +19 +19 1023.9 1009.6
06 9.06 З 2 н/о н/о +20.0 +12.8 63 +22 +22 комфорт 1024.0 1009.8 +15.2 +23.7
07 9.06 СЗ 2 н/о н/о +21.7 +13.2 58 +24 +24 комфорт 1024.0 1009.8
08 9.06 С 1 н/о н/о +23.4 +13.5 54 +27 +27 душно 1023.3 1009.2
09 9.06 СЗ 1 н/о н/о +24.0 +13.1 51 +26 +26 жарко 1023.0 1009.0
10 9.06 В 1 н/о н/о +25.6 +14.7 51 +28 +28 жарко 1022.8 1008.8
11 9.06 СВ 1 н/о н/о +26.4 +15.4 51 +29 +29 жарко 1022.3 1008.4
12 9.06 штиль 0 н/о н/о +27.3 +16.7 52 +31 +31 душно 1021.6 1007.8
13 9.06 Ю 1 н/о н/о +27.8 +16.1 49 +31 +31 душно 1021.2 1007.4
14 9.06 ЮЗ 1 н/о н/о +28.0 +14.2 43 +30 +30 жарко 1020.7 1006.9
15 9.06 Ю 1 н/о н/о +28.0 +14.3 43 +30 +30 жарко 1020.1 1006.3
16 9.06 Ю 1 н/о н/о +27.4 +12.8 40 +29 +29 жарко 1019.4 1005.6
17 9.06 Ю 1 н/о н/о +27.2 +12.6 40 +29 +29 жарко 1019.2 1005.4
18 9.06 ЮВ 1 н/о н/о +26.4 +14.5 48 +29 +29 жарко 1019.0 1005.1 +19.7 +28.7
19 9.06 В 1 н/о н/о +23.6 +15.9 62 +27 +27 жарко 1018.8 1004.8
20 9.06 В 1 н/о н/о +21.5 +16.1 71 +25 +25 комфорт 1019.4 1005.3
21 9.06 В 1 н/о н/о +20.6 +15.7 73 +25 +25 комфорт 1019.2 1005.1 0.0
22 9.06 ЮВ 1 н/о н/о +19.6 +15.2 76 +23 +23 комфорт 1019.1 1004.9
23 9.06 ЮВ 1 н/о н/о +18.9 +14.6 76 +21 +21 комфорт 1018.9 1004.7
00 10.06 ЮВ 1 н/о н/о +18.4 +14.5 78 +20 +20 1018.7 1004.5 0.0
01 10.06 ЮВ 1 н/о н/о +17.7 +14.4 81 +19 +19 1018.6 1004.3
02 10.06 ЮВ 1 н/о н/о +17.1 +14.7 86 +18 +18 1018.5 1004.2
03 10.06 ЮВ 1 н/о н/о +16.9 +14.8 87 +18 +18 1017.8 1003.5
04 10.06 Ю 1 н/о н/о +17.4 +15.0 86 +18 +18 1017.6 1003.3
05 10.06 Ю 1 н/о н/о +19.2 +15.6 80 +22 +22 комфорт 1017.4 1003.2
06 10.06 ЮВ 2 н/о н/о +21.9 +16.7 72 +26 +26 душно 1017.1 1003.1 +16.6 +26.6 0.0
07 10.06 ЮВ 3 н/о н/о +23.7 +16.9 66 +27 +27 жарко 1016.8 1002.9
08 10.06 ЮВ 4 н/о н/о +26.1 +18.1 61 +31 +31 очень
душно
1016.1 1002.3
09 10.06 Ю 4 н/о н/о +27.4 +18.3 58 +32 +32 очень
душно
1016.0 1002.2
10 10.06 Ю 4 н/о н/о +28.6 +18.9 56 +34 +34 очень
душно
1015.6 1001.9
11 10.06 Ю 4 н/о н/о +29.2 +17.7 50 +34 +34 очень
душно
1015.3 1001.6
12 10.06 Ю 3 н/о н/о +29.6 +16.8 46 +33 +33 душно 1014.6 1001.0
13 10.06 Ю 3 н/о н/о +30.3 +17.2 45 +34 +34 очень
душно
1013.8 1000.2
14 10.06 ЮВ 4 н/о н/о +30.6 +17.6 46 +35 +35 очень
душно
1013.3 999.7
15 10.06 Ю 3 н/о н/о +30.3 +17.1 45 +34 +34 очень
душно
1012.5 998.9
16 10.06 ЮВ 4 н/о н/о +29.9 +18.3 50 +35 +35 очень
душно
1011.8 998.2
17 10.06 ЮВ 3 н/о н/о +29.2 +18.9 54 +35 +35 очень
душно
1011.5 997.9
18 10.06 ЮВ 2 н/о н/о +27.7 +19.2 60 +33 +33 очень
душно
1011.7 998.0 +21.3 +30.8
19 10.06 ЮВ 1 н/о н/о +25.7 +19.0 67 +31 +31 очень
душно
1012.3 998.5
20 10.06 ЮВ 1 н/о н/о +24.1 +18.7 72 +29 +29 душно 1012.9 999.0
21 10.06 ЮВ 1 н/о н/о +23.1 +18.6 76 +29 +29 очень
душно
1012.6 998.7
22 10.06 ЮВ 1 н/о н/о +22.2 +18.4 79 +27 +27 душно 1012.5 998.6
23 10.06 ЮВ 1 н/о н/о +21.6 +18.2 81 +26 +26 душно 1012.5 998.5
00 11.06 ЮВ 1 н/о н/о +21.2 +17.9 81 +25 +25 комфорт 1012.1 998.1
01 11.06 ЮВ 3 н/о н/о +21.3 +17.9 81 +25 +25 комфорт 1011.9 997.9
02 11.06 ЮВ 1 н/о н/о +20.9 +17.8 82 +26 +26 душно 1011.6 997.6
03 11.06 В 1 н/о н/о +20.2 +17.9 87 +25 +25 комфорт 1011.6 997.6
04 11.06 В 1 н/о н/о +20.5 +18.2 87 +25 +25 комфорт 1011.8 997.8
05 11.06 В 2 н/о н/о +22.6 +18.9 80 +28 +28 душно 1011.6 997.7
06 11.06 ЮВ 2 н/о н/о +24.9 +19.8 73 +30 +30 душно 1011.9 998.1 +19.9 +28.0
07 11.06 ЮВ 2 н/о н/о +26.7 +20.5 69 +33 +33 очень
душно
1012.2 998.5
08 11.06 ЮВ 3 н/о н/о +28.8 +21.0 63 +36 +36 очень
душно
1012.0 998.4
09 11.06 ЮВ 3 н/о н/о +29.8 +19.4 54 +36 +36 очень
душно
1011.7 998.1
10 11.06 ЮВ 4 н/о н/о +30.5 +18.9 50 +36 +36 очень
душно
1011.8 998.2
11 11.06 Ю 4 н/о н/о +30.7 +17.3 45 +35 +35 очень
душно
1011.8 998.2
12 11.06 ЮВ 3 н/о н/о +31.5 +18.2 45 +36 +36 очень
душно
1011.5 998.0
13 11.06 ЮВ 4 н/о н/о +31.6 +17.7 44 +36 +36 очень
душно
1011.0 997.5
14 11.06 ЮВ 3 н/о н/о +31.7 +18.8 46 +37 +37 очень
душно
1010.9 997.4
15 11.06 ЮВ 3 н/о н/о +31.1 +19.4 50 +37 +37 очень
душно
1010.4 996.9
16 11.06 ЮВ 3 н/о н/о +30.6 +19.9 53 +37 +37 очень
душно
1010.5 997.0
17 11.06 ЮВ 2 н/о н/о +29.8 +20.0 56 +36 +36 очень
душно
1011.0 997.4
18 11.06 ЮВ 2 н/о н/о +27.4 +19.9 64 +34 +34 очень
душно
1011.4 997.7 +24.8 +32.0
19 11.06 В 1 н/о н/о +25.6 +19.6 69 +31 +31 очень
душно
1011.5 997.7
20 11.06 В 1 н/о н/о +24.3 +19.5 75 +30 +30 очень
душно
1012.2 998.4
21 11.06 ЮВ 1 н/о н/о +24.0 +18.9 73 +29 +29 душно 1012.4 998.5
22 11.06 ЮВ 3 н/о н/о +23.8 +18.8 74 +29 +29 душно 1012.3 998.4
23 11.06 ЮВ 3 н/о н/о +23.1 +18.7 76 +29 +29 очень
душно
1011.9 998.0
00 12.06 ЮВ 3 н/о н/о +22.3 +18.2 78 +27 +27 душно 1011.2 997.3
01 12.06 ЮВ 2 н/о н/о +21.0 +17.7 81 +26 +26 душно 1010.9 996.9
02 12.06 В 2 н/о н/о +20.1 +17.6 86 +24 +24 комфорт 1010.5 996.5
03 12.06 В 2 н/о н/о +19.3 +17.4 89 +22 +22 комфорт 1010.9 996.8
04 12.06 В 1 н/о н/о +20.0 +17.6 86 +24 +24 комфорт 1011.9 997.9
05 12.06 ЮВ 2 н/о н/о +22.2 +17.2 73 +27 +27 душно 1012.0 998.1
06 12.06 ЮВ 3 н/о н/о +23.9 +17.3 67 +28 +28 душно 1012.1 998.2 +19.3 +27.6
07 12.06 ЮВ 3 н/о н/о +25.6 +17.1 59 +29 +29 душно 1012.3 998.5
08 12.06 ЮВ 3 н/о н/о +27.3 +18.4 58 +32 +32 очень
душно
1012.3 998.6
09 12.06 ЮВ 3 н/о н/о +28.4 +18.4 55 +33 +33 очень
душно
1012.4 998.7
10 12.06 ЮВ 4 н/о н/о +29.4 +18.2 51 +34 +34 очень
душно
1012.1 998.5
11 12.06 Ю 4 н/о н/о +29.8 +18.0 49 +34 +34 очень
душно
1011.6 998.0
12 12.06 ЮВ 4 н/о н/о +30.7 +18.3 48 +36 +36 очень
душно
1011.2 997.7
13 12.06 ЮВ 4 н/о н/о +30.8 +18.0 46 +35 +35 очень
душно
1010.9 997.4
14 12.06 ЮВ 4 н/о н/о +31.0 +18.6 48 +36 +36 очень
душно
1010.9 997.4
15 12.06 ЮВ 4 н/о н/о +31.0 +19.2 49 +36 +36 очень
душно
1010.2 996.7
16 12.06 ЮВ 3 н/о н/о +30.6 +19.0 50 +36 +36 очень
душно
1010.0 996.5
17 12.06 ЮВ 4 н/о н/о +29.2 +19.1 55 +35 +35 очень
душно
1010.0 996.4
18 12.06 ЮВ 1 н/о н/о +27.9 +19.5 60 +34 +34 очень
душно
1010.2 996.6 +23.6 +31.4
19 12.06 В 1 н/о н/о +25.9 +19.3 67 +31 +31 очень
душно
1010.6 996.9
20 12.06 В 1 н/о н/о +24.5 +18.8 71 +29 +29 душно 1011.1 997.3
21 12.06 В 2 н/о н/о +24.3 +18.8 71 +29 +29 душно 1011.3 997.5
22 12.06 СВ 2 н/о н/о +22.8 +18.8 78 +29 +29 очень
душно
1011.6 997.7
23 12.06 В 1 н/о н/о +22.4 +18.8 80 +28 +28 душно 1011.7 997.8
00 13.06 СВ 2 н/о н/о +21.7 +18.6 83 +27 +27 душно 1011.7 997.7
01 13.06 СВ 2 н/о н/о +21.0 +18.1 84 +26 +26 душно 1011.6 997.6
02 13.06 В 1 н/о н/о +20.2 +17.7 86 +25 +25 комфорт 1011.4 997.4
03 13.06 В 2 н/о н/о +20.2 +17.3 83 +24 +24 комфорт 1011.5 997.5
04 13.06 СВ 1 н/о н/о +20.2 +17.3 83 +24 +24 комфорт 1011.9 997.9
05 13.06 В 1 н/о н/о +22.0 +18.1 79 +27 +27 душно 1012.1 998.1
06 13.06 ЮВ 1 н/о н/о +24.7 +18.8 70 +30 +30 очень
душно
1012.3 998.5 +19.9 +27.9
07 13.06 Ю 1 н/о н/о +25.9 +18.9 65 +31 +31 очень
душно
1012.4 998.6
08 13.06 Ю 1 н/о н/о +27.4 +20.0 64 +34 +34 очень
душно
1012.4 998.7
09 13.06 ЮВ 1 н/о н/о +28.2 +20.1 61 +34 +34 очень
душно
1012.5 998.8
10 13.06 В 2 н/о н/о +29.9 +21.2 60 +38 +38 очень
душно
1012.4 998.8
11 13.06 ЮВ 2 н/о н/о +31.0 +21.5 57 +39 +39 очень
душно
1012.0 998.5
12 13.06 ЮВ 3 н/о н/о +31.8 +21.4 54 +40 +40 очень
душно
1011.5 998.0
13 13.06 ЮВ 3 н/о н/о +32.0 +20.3 50 +39 +39 очень
душно
1011.2 997.7
14 13.06 ЮВ 3 н/о н/о +32.8 +19.5 46 +39 +39 очень
душно
1010.9 997.5
15 13.06 Ю 4 н/о н/о +32.3 +20.0 48 +38 +38 очень
душно
1010.8 997.3
16 13.06 Ю 3 н/о н/о +31.8 +19.8 49 +38 +38 очень
душно
1010.4 996.9
17 13.06 Ю 2 н/о н/о +30.8 +18.7 49 +36 +36 очень
душно
1010.8 997.3
18 13.06 Ю 2 н/о н/о +28.9 +18.2 52 +34 +34 очень
душно
1010.5 996.9 +24.0 +32.9 0.0
19 13.06 Ю 2 н/о н/о +26.5 +18.0 60 +31 +31 душно 1011.1 997.4
20 13.06 ЮВ 2 н/о н/о +24.8 +18.2 67 +29 +29 душно 1011.8 998.0
21 13.06 ЮВ 2 н/о н/о +24.0 +17.7 68 +28 +28 душно 1012.3 998.4
22 13.06 В 1 н/о н/о +22.8 +17.1 70 +28 +28 душно 1012.9 999.0
23 13.06 ЮВ 2 н/о н/о +21.5 +16.4 73 +25 +25 комфорт 1013.1 999.1
00 14.06 Ю 1 н/о н/о +21.1 +15.9 72 +24 +24 комфорт 1013.3 999.3
01 14.06 Ю 1 н/о н/о +20.3 +15.8 75 +24 +24 комфорт 1013.4 999.3
02 14.06 С 1 н/о н/о +19.9 +15.9 78 +23 +23 комфорт 1014.3 1000.2
03 14.06 СЗ 1 н/о н/о +20.6 +16.4 77 +25 +25 комфорт 1015.1 1001.0
04 14.06 З 1 н/о н/о +21.4 +17.6 79 +26 +26 душно 1015.4 1001.4
05 14.06 СЗ 3 н/о н/о +22.3 +18.0 77 +27 +27 душно 1015.9 1001.9
06 14.06 СЗ 4 н/о н/о +23.4 +18.2 73 +29 +29 душно 1016.6 1002.7 +19.5 +29.6
07 14.06 СЗ 4 н/о н/о +24.9 +18.6 68 +30 +30 душно 1017.2 1003.3
08 14.06 СЗ 4 н/о н/о +26.0 +18.9 65 +31 +31 очень
душно
1017.4 1003.6
09 14.06 С 2 н/о н/о +27.8 +19.3 60 +33 +33 очень
душно
1017.5 1003.7
10 14.06 С 2 н/о н/о +29.2 +18.7 53 +34 +34 очень
душно
1017.5 1003.8
11 14.06 С 2 н/о н/о +30.1 +18.1 49 +35 +35 очень
душно
1017.5 1003.8
12 14.06 В 2 н/о н/о +31.5 +17.8 44 +36 +36 очень
душно
1016.9 1003.3
13 14.06 В 2 н/о н/о +32.4 +17.4 41 +36 +36 очень
душно
1016.6 1003.1
14 14.06 В 2 н/о н/о +32.6 +18.7 44 +38 +38 очень
душно
1016.2 1002.7
15 14.06 ЮВ 2 н/о н/о +32.0 +18.9 46 +37 +37 очень
душно
1016.0 1002.5
16 14.06 ЮВ 2 н/о н/о +31.6 +18.3 45 +36 +36 очень
душно
1015.8 1002.2
17 14.06 В 1 н/о н/о +31.4 +19.3 49 +37 +37 очень
душно
1015.4 1001.8
18 14.06 В 1 н/о н/о +29.9 +19.8 55 +36 +36 очень
душно
1015.5 1001.9 +23.3 +32.7
19 14.06 В 1 н/о н/о +27.5 +19.6 62 +33 +33 очень
душно
1015.3 1001.6
20 14.06 В 1 н/о н/о +25.7 +20.3 72 +32 +32 очень
душно
1016.0 1002.2
21 14.06 В 1 н/о н/о +24.3 +20.1 77 +30 +30 очень
душно
1015.7 1001.8
22 14.06 ЮВ 1 н/о н/о +23.6 +19.3 77 +29 +29 душно 1015.8 1001.9
23 14.06 ЮВ 1 н/о н/о +23.1 +19.5 80 +30 +30 очень
душно
1015.4 1001.5
00 15.06 ЮВ 1 н/о н/о +22.2 +19.5 85 +28 +28 душно 1015.2 1001.2
01 15.06 Ю 1 н/о н/о +21.9 +19.4 86 +27 +27 душно 1014.9 1000.9
02 15.06 ЮВ 2 н/о н/о +21.1 +19.2 89 +26 +26 душно 1014.4 1000.4
03 15.06 В 2 н/о н/о +20.4 +18.8 91 +25 +25 комфорт 1014.6 1000.5
04 15.06 В 2 н/о н/о +20.7 +19.3 92 +26 +26 душно 1014.2 1000.2
05 15.06 ЮВ 2 н/о н/о +23.3 +20.2 83 +31 +31 очень
душно
1014.0 1000.1
06 15.06 ЮВ 2 н/о н/о +23.8 +20.5 82 +30 +30 очень
душно
1014.0 1000.1 +20.3 +30.3
07 15.06 Ю 2 н/о н/о +26.9 +20.7 69 +34 +34 очень
душно
1013.9 1000.2
08 15.06 Ю 3 н/о н/о +28.5 +20.7 63 +36 +36 очень
душно
1013.8 1000.1
09 15.06 Ю 3 н/о н/о +28.9 +20.7 61 +36 +36 очень
душно
1013.6 1000.0 0.0
10 15.06 Ю 3 н/о ливневой дождь н/о +29.7 +20.6 58 +37 +37 очень
душно
1013.4 999.8 0.0
11 15.06 ЮВ 4 н/о н/о +31.2 +20.9 54 +38 +38 очень
душно
1013.0 999.5 0.0
12 15.06 ЮВ 5 н/о {ливн. осадки} н/о +31.9 +19.9 49 +38 +38 очень
душно
1012.6 999.1 0.0
13 15.06 ЮВ 4 н/о н/о +32.4 +20.1 48 +39 +39 очень
душно
1012.1 998.6
14 15.06 ЮВ 5 н/о н/о +32.3 +19.7 47 +38 +38 очень
душно
1011.7 998.2
15 15.06 Ю 4 н/о н/о +32.4 +19.8 47 +38 +38 очень
душно
1011.2 997.7
16 15.06 Ю 3 н/о осадки н/о +30.5 +21.0 57 +38 +38 очень
душно
1010.4 996.9 0.0
17 15.06 Ю 2 н/о ливневой дождь н/о +29.8 +21.3 60 +37 +37 очень
душно
1010.5 996.9 0.0
18 15.06 ЮВ 2 н/о в посл. час осадки {ливн. осадки} н/о +29.0 +21.8 65 +37 +37 очень
душно
1010.4 996.8 +23.8 +32.9 0.0
19 15.06 Ю 1 н/о н/о +27.1 +21.0 69 +34 +34 очень
душно
1010.6 996.9 0.0
20 15.06 ЮВ 2 н/о н/о +25.8 +20.9 74 +32 +32 очень
душно
1011.1 997.4
21 15.06 Ю 1 н/о н/о +25.3 +21.0 77 +32 +32 очень
душно
1011.4 997.6 0.0

 

Местоположение метеостанции Андау (Австрия): широта 47.77 долгота 17.03 высота над уровнем моря 121 м.

В архиве по умолчанию представлена погода в Андау за последнюю неделю. Архивные данные за месяц целиком и за предыдущие месяцы, начиная с января 2011 года, Вы можете получить, выбрав интересующий диапазон дат из раскрывающегося списка и нажав кнопку "Ввод!".


*Определитесь, кто Вы:
робот инопланетянин человек

Внимание! Время в таблицах - всемирное. Для получения местного времени необходимо прибавить поправку, которая равна 1 ч.

Смотрите также архив погоды в соседних городах и на ближайших метеорологических станциях:

Погода в Мошонмадьяроваре (Венгрия) (22 км)
Погода в Нойзидль-ам-Зе (Австрия) (24 км)
Погода в Нойзидль-ам-Зе (Австрия) (25 км)
Погода в Шопроне (Венгрия) (34 км)
Погода в Айзенштадте (Австрия) (38 км)
Погода в Луцмансбурге (Австрия) (44 км)
Погода в Братислава-Колибе (Словакия) (45 км)
Погода в Зайберсдорфе (Австрия) (46 км)
Погода в Дьере (Венгрия) (49 км)
Погода в Братиславе (Словакия) (49 км)

Пояснения к столбцам:

Ветер - указаны скорость ветра в м/с - средняя за 10 мин, порывы в срок и между сроками (в фигурных скобках) и направление, откуда дует ветер: С - северный, СВ - северо-восточный, В - восточный, ЮВ - юго-восточный, Ю - южный, ЮЗ - юго-западный, З - западный, СЗ - северо-западный.
Видимость - горизонтальная дальность видимости в метрах или километрах. При видимости от 1 до 10 км при отсутствии осадков обычно наблюдается дымка, при ухудшении видимости до 1 км и менее - туман. В сухую погоду видимость может ухудшаться дымом, пылью или мглою.
Явления - указаны атмосферные явления, наблюдавшиеся в срок или в последний час перед сроком; фигурными скобками обозначены явления, наблюдавшиеся между сроками (за 1-3 часа до срока); квадратными скобками обозначены град или гололедные отложения с указанием их диаметра в мм.
Облачность - указаны через наклонную черту общая и нижняя облачность в баллах и высота нижней границы облаков в метрах; квадратными скобками обозначены формы облаков: Ci - перистые, Cs - перисто-слоистые, Cc - перисто-кучевые, Ac - высококучевые, As - высокослоистые, Sc - слоисто-кучевые, Ns - слоисто-дождевые, Cu - кучевые, Cb - кучево-дождевые. Подробнее классификацию облаков см. в Атласе облаков (PDF).
T - Температура воздуха - температура, измеренная на высоте 2 м над землей.
Td - Температура точки росы - температура, при понижении до которой содержащийся в воздухе водяной пар достигнет насыщения.
f - Относительная влажность воздуха - влажноcть воздуха, измеренная на высоте 2 м над землей.
Te - Эффективная температура - температура, которую ощущает одетый по сезону человек в тени. Характеристика душности погоды. При расчете учитывается влияние влажности воздуха и скорости ветра на теплоощущения человека.
Tes - Эффективная температура на солнце - температура, которую ощущает человек, с поправкой на солнечный нагрев. Характеристика знойности погоды. Зависит от высоты солнца над горизонтом, облачности и скорости ветра. Ночью, в пасмурную погоду, а также при ветре 12 м/с и более поправка равна нулю.
P - Атмосферное давление - приведенное к уровню моря атмосферное давление.
Po - Атмосферное давление - измеренное на уровне метеостанции атмосферное давление.
Tmin - Минимальная температура - минимум температуры воздуха на высоте 2 м над землей.
Tmax - Максимальная температура - максимум температуры воздуха на высоте 2 м над землей.
R - Количество осадков - Количество выпавших осадков за период времени, мм. При наведении курсора мыши на число - период времени, за который выпало указанное количество осадков.
R24 - Количество осадков - Количество выпавших осадков за 24 часа, мм.
S - Снежный покров - Высота снежного покрова, см. При наведении курсора мыши на число - состояние снежного покрова и степень покрытия местности в баллах.